|   |  | Asteroid 2017 HZ4
					
					
					
					
						
					
					
						
							(Preview) 
						
							
								Orbital elements:
2017 HZ4                                                 Earth MOID = 0.0001 AU
Epoch 2017 Feb. 16.0 TT = JDT 2457800.5                 MPC
M 126.23623              (2000.0)            P               Q
n   1.14066316     Peri.  312.32710     +0.94129236     -0.33631947
a   0.9071890      Node    67.34474     +0.31831978     +0.85531313
e   0.2166055      Incl.    1.81881     +0.11243312     +0.39411756
P   0.86           H   25.8           G   0... | Blobrana | 1 |  |  | 
		
			
			
				
				
					|   |  | Asteroid 2017 HU3
					
					
					
					
						
					
					
						
							(Preview) 
						
							
								The 22 - 50 metre wide asteroid 2017 HU3 in the constellation Cygnus will make a close pass (6.12 LD, 0.01572 AU), travelling at 8.93 km/second, to the Earth-Moon system on the 30th April 2017 @ 02:26 UT ±00:01.  Magnitude: 19.82 RA: 20 14 37.90, Dec: +40 57 34.8  at 02:26 UT, 30th April 2017  See more The... | Blobrana | 0 |  |  | 
		
			
			
				
				
					|   |  | Asteroid (144977) 2005 EC127
					
					
					
					
						
					
					
						
							(Preview) 
						
							
								Title: Confirmation of Large Super-Fast Rotator (144977) 2005 EC127  Author: Chan-Kao Chang, Hsing-Wen Lin, Wing-Huen Ip, Zhong-Yi Lin, Thomas Kupfer, Thomas A. Prince, Quan-Zhi Ye, Russ R. Laher, Hee-Jae Lee, Hong-Kyu Moon    (144977) 2005 EC127 is an V-/A-type inner-main-belt asteroid with a d... | Blobrana | 0 |  |  | 
		
			
			
				
				
					|   |  | Asteroid 2017 HY
					
					
					
					
						
					
					
						
							(Preview) 
						
							
								The 9 - 20 metre wide asteroid 2017 HY will make a close pass (3.24 LD, 0.00832 AU), travelling at 7.43 km/second, to the Earth-Moon system on the 24th April 2017 @ 09:56 UT ±00:01.  See more The Lunar Distance (LD), the distance between Earth and the Moon, equals 384,401 km, (or 0.00256 AU). | Blobrana | 0 |  |  | 
		
			
			
				
				
					|   |  | Phocaea asteroid family
					
					
					
					
						
					
					
						
							(Preview) 
						
							
								Title:  A dark asteroid family in the Phocaea region  Author: Bojan Novakovic, Georgios Tsirvoulis, Mikael Granvik, Ana Todovic   We report the discovery of a new asteroid family among the dark asteroids residing in the Phocaea region the Tamara family. We make use of available physical data to separ...                                                                                               | Blobrana | 0 |  |  | 
		
			
			
				
				
					|   |  | Asteroid 2017 HD
					
					
					
					
						
					
					
						
							(Preview) 
						
							
								The 11 - 25 metre wide asteroid 2017 HD will make a close pass (3.77 LD, 0.00969 AU), travelling at 12.27 km/second, to the Earth-Moon system on the 22nd April 2017 @ 17:03 UT ±00:02.  See more The Lunar Distance (LD), the distance between Earth and the Moon, equals 384,401 km, (or 0.00256 AU). | Blobrana | 0 |  |  | 
		
			
			
				
				
					|   |  | Asteroid 1979 MB9
					
					
					
					
						
					
					
						
							(Preview) 
						
							
								Asteroid named after Kiwi astronomer Michele Bannister  Asteroid (10463) Bannister has been named after Taranaki-raised Michele Bannister, who now works at Queen's University Belfast in Northern Ireland  The rock, which is 11km wide, was first discovered in 1979, but is too faint to see with the n... | Blobrana | 1 |  |  | 
		
			
			
				
				
					|   |  | Asteroid 2017 HJ
					
					
					
					
						
					
					
						
							(Preview) 
						
							
								The 8 - 19 metre wide asteroid 2017 HJ made a close pass (0.4 LD, 0.0009 AU), travelling at 15.03 km/second, to the Earth-Moon system on the 16th April 2017 @ 05:43 UT ±00:01.  See more The Lunar Distance (LD), the distance between Earth and the Moon, equals 384,401 km, (or 0.00256 AU). | Blobrana | 0 |  |  | 
		
			
			
				
				
					|   |  | Asteroid (11949) Kagayayutaka
					
					
					
					
						
					
					
						
							(Preview) 
						
							
								(11949) Kagayayutaka / HIP 42353 event on 2017 Apr 18, 05:40 UT On 2017 Apr 18 UT, the 15 km diameter asteroid (11949) Kagayayutaka will occult a 6.5 mag star in the constellation Cancer for observers along a path across SW USA, Mexico. Read more | Blobrana | 0 |  |  | 
		
			
			
				
				
					|   |  | Asteroid (5316) Filatov
					
					
					
					
						
					
					
						
							(Preview) 
						
							
								(5316) Filatov / HIP 27511 event on 2017 Apr 16, 19:09 UT On 2017 Apr 16 UT, the 33 km diameter asteroid (5316) Filatov will occult a 4.9 mag star in the constellation Taurus for observers along a path across Africa. Read more | Blobrana | 0 |  |  | 
		
			
			
				
				
					|   |  | Asteroid (3182) Shimanto
					
					
					
					
						
					
					
						
							(Preview) 
						
							
								(3182) Shimanto / HIP 98633 event on 2017 Apr 15, 02:49 UT On 2017 Apr 15 UT, the 14 km diameter asteroid (3182) Shimanto will occult a 5.7 mag star in the constellation Sagittarius for observers along a path across Arabia, Europe. Read more | Blobrana | 0 |  |  | 
		
			
			
				
				
					|   |  | TNO 2014 UZ224
					
					
					
					
						
					
					
						
							(Preview) 
						
							
								2014 UZ224 is a trans-Neptunian object (TNO) and possible dwarf planet orbiting in the scattered disc. As of October 10, 2016, it was approximately 91.6 astronomical units (AU) from the Sun, and will slowly decrease in distance until it reaches its perihelion of 38 AU sometime near 2142.  Read more | Blobrana | 1 |  |  | 
		
			
			
				
				
					|   |  | Asteroid (143404) 2003 BD44
					
					
					
					
						
					
					
						
							(Preview) 
						
							
								Asteroid (143404) 2003 BD44 in the constellation Leo is at magnitude +13.3 at 23:30 UT, 12th April 2017 | Blobrana | 1 |  |  | 
		
			
			
				
				
					|   |  | Asteroid 2017 GT4
					
					
					
					
						
					
					
						
							(Preview) 
						
							
								The 13 - 28 metre wide asteroid 2017 GT4 will make a close pass (3.5 LD, 0.0090 AU), travelling at 9.28 km/second, to the Earth-Moon system on the 9th April 2017 @ 01:29 UT ±00:01.  See more The Lunar Distance (LD), the distance between Earth and the Moon, equals 384,401 km, (or 0.00256 AU). | Blobrana | 0 |  |  | 
		
			
			
				
				
					|   |  | Asteroid (416) Vaticana
					
					
					
					
						
					
					
						
							(Preview) 
						
							
								Asteroid (416) Vaticana is at Opposition in the constellation Virgo at 11:50 UT, 8th April 2017 Magnitude: 10.9 V Distance to Earth: 1.401 AU Distance to Sun: 2.384 AU  | Blobrana | 0 |  |  |